Regional Weather Roundup
Issued by NWS Columbia, SC

Home | Current Version | Previous Version | Text Only | Print | Product List | Glossary On
Versions: 1 2 3 4 5 6 7 8 9 10 11 12 13 14 15 16 17 18 19 20 21 22 23 24 25 26 27 28 29 30 31 32 33 34 35 36 37 38 39 40 41 42 43 44 45 46 47 48 49 50
000
ASUS42 KCAE 201310
RWRCAE
REGIONAL WEATHER ROUNDUP
NATIONAL WEATHER SERVICE COLUMBIA SC
800 AM EST SAT DEC 20 2014

NOTE: "FAIR" INDICATES FEW OR NO CLOUDS BELOW 12,000 FEET WITH NO
SIGNIFICANT WEATHER AND/OR OBSTRUCTIONS TO VISIBILITY.

NOT ALL STATIONS ARE QUALITY CONTROLLED BY THE NATIONAL
WEATHER SERVICE. USE DATA WITH CAUTION...ESPECIALLY
DEWPOINT OBSERVATIONS.

SCZ001>056-GAZ040-063>065-077-201400-
...UPSTATE SOUTH CAROLINA...

CITY           SKY/WX    TMP DP  RH WIND       PRES   REMARKS
ANDERSON       LGT RAIN  43  40  89 E7        30.19R
LIBERTY        LGT RAIN  41  31  67 MISG      30.19R
SPARTANBURG    LGT RAIN  41  41 100 NE6       30.21F
CLEMSON        LGT RAIN  44  39  82 E6        30.19S
GREENVILLE     CLOUDY    41  36  82 NE8       30.19F
GREENWOOD      LGT RAIN  44  42  93 N5        30.21S FOG
GREER          CLOUDY    40  37  89 NE8       30.19S WCI  34
ROCK HILL      LGT RAIN  40  37  89 VRB3      30.23R
CHESTER        LGT RAIN  43  39  87 N7        30.23R


...CENTRAL SOUTH CAROLINA...

CITY           SKY/WX    TMP DP  RH WIND       PRES   REMARKS
COLUMBIA APT   LGT RAIN  46  42  86 NE3       30.20R
COLUMBIA OWENS LGT RAIN  45  41  86 NE3       30.22R
DARLINGTON     CLOUDY    43  34  70 NE6       30.23R
FLORENCE       CLOUDY    43  40  89 NE6       30.21R
MCENTIRE ANGB  LGT RAIN  44  42  93 NE3       30.21R
ORANGEBURG     LGT RAIN  47  44  90 NE3       30.20R FOG
SUMTER SHAW    LGT RAIN  44  42  93 NE7       30.19R
NEWBERRY       LGT RAIN  43 N/A N/A N5        30.24R
AIKEN          LGT RAIN  45  45 100 CALM      30.22R
BARNWELL         N/A     46  46 100 CALM      30.21R
CAMDEN         LGT RAIN  41  37  87 CALM      30.23R
LANCASTER      LGT RAIN  39  39 100 NE5       30.23R
WINNSBORO      LGT RAIN  43  41  93 NE5       30.21R


...EASTERN AND COASTAL SOUTH CAROLINA...

CITY           SKY/WX    TMP DP  RH WIND       PRES   REMARKS
MYRTLE BEACH   LGT RAIN  46  43  87 NE10      30.21R
N MYRTLE BCH   CLOUDY    46  43  89 NE10      30.19R
MARION         CLOUDY    43  37  81 CALM      30.21S
HARTSVILLE     CLOUDY    43  34  70 NE7       30.21S
FLORENCE       CLOUDY    43  40  89 NE6       30.21R
DARLINGTON     CLOUDY    43  34  70 NE6       30.23R
CHARLESTON APT LGT RAIN  51  47  86 E8        30.17S
MOUNT PLEASANT LGT RAIN  52  50  93 CALM      30.18R
WALTERBORO     DRIZZLE   50 N/A N/A CALM      30.17R
BEAUFORT       CLOUDY    51  47  86 NE5       30.16R


...EASTERN GEORGIA...

CITY           SKY/WX    TMP DP  RH WIND       PRES   REMARKS
AUGUSTA BUSH F LGT RAIN  48  46  93 CALM      30.20R
AUGUSTA DANIEL LGT RAIN  49  47  93 E6        30.19R
THOMSON        CLOUDY    48  48 100 CALM      30.23R
WASHINGTON     LGT RAIN  46 N/A N/A CALM      30.18S
CLAXTON        LGT RAIN  50  50 100 CALM      30.17R
SYLVANIA       CLOUDY    48  48 100 N3        30.18R
STATESBORO     DRIZZLE   49  49 100 CALM      30.18R
SAVANNAH       LGT RAIN  51  48  89 CALM      30.16R


...SOUTHERN NORTH CAROLINA...

CITY           SKY/WX    TMP DP  RH WIND       PRES   REMARKS
CHARLOTTE      LGT RAIN  40  33  76 VRB3      30.25R
MONROE         CLOUDY    40  34  79 NE6       30.23R
WADESBORO      CLOUDY    39  37  91 CALM      30.24R
ROCKINGHAM     CLOUDY    39  36  90 NE6       30.23S WCI  34
RUTHERFORDTON  RAIN      38  36  94 CALM      30.23R
ASHEVILLE      LGT RAIN  38  35  89 S3        30.18S

$$



USA.gov is the U.S. government's official web portal to all federal, state and local government web resources and services.